Date String (YYYY-MM-DD hh:mm:ss) UTC,Instrument flags,Ambient pressure (hPa),Sample flow (lpm),Bypass flow (lpm),Sample temperature (°C),Ambient temperature (°C),ASC tube jacket temperature (°C),LED temperature (°C),Box temperature (°C),Sample RH (%),Span deviation,Mass concentration (μg/m³),Mass concentration (μg/m³),Mass concentration (μg/m³)
DateTimeUTC,F1_M11,P_M11,Q1_M11,Q2_M11,T1_M11,T2_M11,T3_M11,T4_M11,T5_M11,U1_M11,ZSPAN_M11,X0_M11,X2_M11,X1_M11
2022-05-07 19:00:00,,0813.0,5.00,0.00,29.2,25.7,00.0,38.2,30.8,11.9,0000.0,0010.42,0003.49,0001.80
2022-05-07 19:01:00,,0813.2,4.99,0.00,29.2,26.2,00.0,38.1,30.8,11.0,0000.0,0010.40,0003.48,0001.78
2022-05-07 19:02:00,,0812.9,5.00,0.00,29.2,26.6,00.0,38.1,30.9,11.2,0000.0,0010.56,0003.52,0001.77
2022-05-07 19:03:00,,0812.9,5.01,0.00,29.2,27.1,00.0,38.1,31.0,11.5,0000.0,0010.47,0003.50,0001.76
2022-05-07 19:04:00,,0812.9,5.00,0.00,29.2,27.5,00.0,38.1,31.0,11.2,0000.0,0010.50,0003.51,0001.77
2022-05-07 19:05:00,,0812.9,4.99,0.00,29.3,27.8,00.0,38.1,31.1,12.4,0000.0,0009.71,0003.46,0001.75
2022-05-07 19:06:00,,0812.9,4.99,0.00,29.3,28.0,00.0,38.1,31.2,12.3,0000.0,0010.08,0003.47,0001.76
2022-05-07 19:07:00,,0813.0,5.00,0.00,29.4,28.2,00.0,38.1,31.3,11.3,0000.0,0010.59,0003.50,0001.76
2022-05-07 19:08:00,,0813.0,5.00,0.00,29.4,28.4,00.0,38.2,31.3,11.5,0000.0,0010.72,0003.52,0001.77
2022-05-07 19:09:00,,0813.1,5.01,0.00,29.5,28.0,00.0,38.2,31.3,11.4,0000.0,0010.46,0003.52,0001.78
2022-05-07 19:10:00,,0812.9,5.00,0.00,29.4,26.0,00.0,38.2,30.8,11.6,0000.0,0010.21,0003.45,0001.79
2022-05-07 19:11:00,,0812.8,5.00,0.00,29.2,25.4,00.0,38.2,30.6,11.9,0000.0,0009.68,0003.41,0001.80
2022-05-07 19:12:00,,0812.8,4.99,0.00,29.2,25.8,00.0,38.2,30.8,12.1,0000.0,0010.10,0003.37,0001.79
2022-05-07 19:13:00,,0812.8,5.01,0.00,29.1,26.3,00.0,38.1,30.8,11.6,0000.0,0010.03,0003.29,0001.78
2022-05-07 19:14:00,,0812.8,4.99,0.00,29.1,26.7,00.0,38.1,30.9,11.5,0000.0,0010.52,0003.30,0001.77
2022-05-07 19:15:00,,0812.8,5.00,0.00,29.2,27.2,00.0,38.1,31.0,11.8,0000.0,0010.42,0003.26,0001.75
2022-05-07 19:16:00,,0812.8,5.00,0.00,29.2,27.5,00.0,38.1,31.1,12.1,0000.0,0010.33,0003.22,0001.76
2022-05-07 19:17:00,,0812.7,5.00,0.00,29.3,27.8,00.0,38.1,31.1,11.9,0000.0,0009.80,0003.17,0001.76
2022-05-07 19:18:00,,0812.7,5.00,0.00,29.3,28.0,00.0,38.1,31.2,11.6,0000.0,0009.07,0003.08,0001.74
2022-05-07 19:19:00,,0812.6,5.01,0.00,29.4,28.2,00.0,38.1,31.3,11.9,0000.0,0009.50,0003.07,0001.74
2022-05-07 19:20:00,,0812.6,5.01,0.00,29.4,28.4,00.0,38.1,31.3,11.1,0000.0,0009.24,0002.99,0001.72
2022-05-07 19:21:00,,0812.6,5.00,0.00,29.5,28.3,00.0,38.2,31.3,11.0,0000.0,0009.47,0002.98,0001.71
2022-05-07 19:22:00,,0812.6,4.99,0.00,29.4,26.5,00.0,38.2,30.9,11.3,0000.0,0009.52,0002.98,0001.71
2022-05-07 19:23:00,,0812.6,5.01,0.00,29.2,25.3,00.0,38.2,30.6,11.6,0000.0,0009.10,0003.04,0001.74
2022-05-07 19:24:00,,0812.6,4.99,0.00,29.2,25.6,00.0,38.2,30.7,11.2,0000.0,0009.49,0003.11,0001.75
2022-05-07 19:25:00,,0812.6,4.99,0.00,29.1,26.1,00.0,38.1,30.7,11.1,0000.0,0009.08,0003.11,0001.75
2022-05-07 19:26:00,,0812.6,5.01,0.00,29.1,26.5,00.0,38.1,30.8,11.9,0000.0,0009.00,0003.11,0001.76
2022-05-07 19:27:00,,0812.6,5.01,0.00,29.1,27.0,00.0,38.1,30.9,11.7,0000.0,0009.05,0003.14,0001.77
2022-05-07 19:28:00,,0812.6,5.00,0.00,29.2,27.4,00.0,38.1,31.0,11.8,0000.0,0009.21,0003.19,0001.78
2022-05-07 19:29:00,,0812.5,5.00,0.00,29.2,27.7,00.0,38.1,31.1,11.9,0000.0,0009.51,0003.25,0001.79
2022-05-07 19:30:00,,0812.4,4.99,0.00,29.3,27.9,00.0,38.1,31.2,11.8,0000.0,0008.45,0003.25,0001.80
2022-05-07 19:31:00,,0812.5,5.01,0.00,29.3,28.1,00.0,38.1,31.2,11.7,0000.0,0008.70,0003.31,0001.81
2022-05-07 19:32:00,,0812.4,5.00,0.00,29.4,28.3,00.0,38.1,31.3,11.1,0000.0,0008.61,0003.30,0001.81
2022-05-07 19:33:00,,0812.4,5.00,0.00,29.4,28.4,00.0,38.1,31.3,11.2,0000.0,0008.67,0003.26,0001.80
2022-05-07 19:34:00,,0812.4,5.01,0.00,29.5,28.1,00.0,38.2,31.2,11.6,0000.0,0008.91,0003.25,0001.78
2022-05-07 19:35:00,,0812.4,5.01,0.00,29.4,26.1,00.0,38.2,30.8,11.4,0000.0,0009.45,0003.24,0001.78
2022-05-07 19:36:00,,0812.3,4.99,0.00,29.2,25.2,00.0,38.2,30.6,11.4,0000.0,0009.79,0003.21,0001.78
2022-05-07 19:37:00,,0812.3,4.99,0.00,29.2,25.7,00.0,38.1,30.7,12.2,0000.0,0010.00,0003.25,0001.78
2022-05-07 19:38:00,,0812.3,4.99,0.00,29.1,26.1,00.0,38.1,30.8,11.6,0000.0,0010.61,0003.31,0001.77
2022-05-07 19:39:00,,0812.1,5.01,0.00,29.1,26.6,00.0,38.1,30.8,11.4,0000.0,0010.63,0003.28,0001.75
2022-05-07 19:40:00,,0812.1,5.01,0.00,29.1,27.0,00.0,38.0,30.9,11.5,0000.0,0010.23,0003.23,0001.74
2022-05-07 19:41:00,,0812.2,4.99,0.00,29.2,27.4,00.0,38.0,31.0,11.2,0000.0,0010.25,0003.22,0001.71
2022-05-07 19:42:00,,0812.2,5.00,0.00,29.2,27.7,00.0,38.0,31.1,11.3,0000.0,0010.13,0003.17,0001.68
2022-05-07 19:43:00,,0812.2,5.00,0.00,29.3,28.0,00.0,38.1,31.2,11.8,0000.0,0010.05,0003.15,0001.65
2022-05-07 19:44:00,,0812.2,5.00,0.00,29.3,28.2,00.0,38.1,31.2,11.3,0000.0,0009.82,0003.14,0001.63
2022-05-07 19:45:00,,0812.1,4.99,0.00,29.4,28.4,00.0,38.1,31.3,11.9,0000.0,0010.10,0003.14,0001.62
2022-05-07 19:46:00,,0812.1,5.00,0.00,29.4,28.3,00.0,38.1,31.3,12.1,0000.0,0008.84,0003.14,0001.59
2022-05-07 19:47:00,,0812.0,4.99,0.00,29.4,26.7,00.0,38.2,31.0,12.4,0000.0,0008.36,0003.12,0001.57
2022-05-07 19:48:00,,0812.0,5.02,0.00,29.2,25.3,00.0,38.1,30.7,11.5,0000.0,0008.45,0003.08,0001.56
2022-05-07 19:49:00,,0812.0,5.00,0.00,29.2,25.5,00.0,38.1,30.7,11.5,0000.0,0008.17,0002.97,0001.55
2022-05-07 19:50:00,,0812.0,4.99,0.00,29.1,26.0,00.0,38.1,30.8,12.2,0000.0,0008.19,0002.98,0001.54
2022-05-07 19:51:00,,0812.1,5.00,0.00,29.1,26.5,00.0,38.0,30.8,10.8,0000.0,0008.38,0002.93,0001.50
2022-05-07 19:52:00,,0812.0,5.01,0.00,29.1,26.9,00.0,38.0,30.9,10.7,0000.0,0008.40,0002.82,0001.48
2022-05-07 19:53:00,,0811.9,5.00,0.00,29.2,27.3,00.0,38.0,31.0,11.3,0000.0,0008.23,0002.78,0001.47
2022-05-07 19:54:00,,0811.8,5.00,0.00,29.2,27.6,00.0,38.0,31.1,11.7,0000.0,0008.24,0002.81,0001.46
2022-05-07 19:55:00,,0812.0,5.00,0.00,29.3,27.9,00.0,38.0,31.1,11.8,0000.0,0008.46,0002.84,0001.45
2022-05-07 19:56:00,,0811.9,4.99,0.00,29.3,28.1,00.0,38.1,31.2,12.6,0000.0,0008.87,0002.83,0001.44
2022-05-07 19:57:00,,0811.8,4.99,0.00,29.3,28.3,00.0,38.1,31.3,11.9,0000.0,0009.16,0002.79,0001.45
2022-05-07 19:58:00,,0811.9,5.00,0.00,29.4,28.4,00.0,38.1,31.3,12.2,0000.0,0009.82,0002.91,0001.47
2022-05-07 19:59:00,,0812.0,5.00,0.00,29.4,28.2,00.0,38.1,31.3,11.9,0000.0,0009.78,0002.98,0001.49
